When you browse on this site, cookies collect data to enhance your experience and personalize the content and advertising you see.
Visit our Privacy Policy to learn more. By continuing to use the site, you agree to this use of cookies and data.
  • în România
  • Lista ţărilor
  • Pe 7 zile
  • Temperatura apei
  • Meteo pe hartă
  • Widget-uri
  • user-avatar
    Intrare

    Meteo pe oră la Saint-Jean-de-Braye

    Astăzi, 22 August, Joi

    Timp Temperatura Precipitaţii Vânt Presiune Umiditate
    00:00 +16°C° 0 mm 2 m/s 760 mmHg 71%
    01:00 +15°C° 0 mm 2 m/s 760 mmHg 72%
    02:00 +15°C° 0 mm 2 m/s 760 mmHg 73%
    03:00 +14°C° 0 mm 2 m/s 759 mmHg 74%
    04:00 +15°C° 0 mm 2 m/s 759 mmHg 73%
    05:00 +15°C° 0 mm 2 m/s 760 mmHg 72%
    06:00 +15°C° 0 mm 1 m/s 760 mmHg 72%
    07:00 +18°C° 0 mm 2 m/s 760 mmHg 62%
    08:00 +20°C° 0 mm 2 m/s 760 mmHg 53%
    09:00 +24°C° 0 mm 2 m/s 761 mmHg 44%
    10:00 +25°C° 0 mm 3 m/s 760 mmHg 40%
    11:00 +26°C° 0 mm 3 m/s 760 mmHg 35%
    12:00 +28°C° 0 mm 3 m/s 760 mmHg 31%
    13:00 +28°C° 0 mm 3 m/s 760 mmHg 29%
    14:00 +29°C° 0 mm 3 m/s 759 mmHg 28%
    15:00 +29°C° 0 mm 3 m/s 759 mmHg 27%
    16:00 +28°C° 0 mm 3 m/s 759 mmHg 31%
    17:00 +26°C° 0 mm 2 m/s 759 mmHg 35%
    18:00 +25°C° 0 mm 2 m/s 758 mmHg 39%
    19:00 +23°C° 0 mm 2 m/s 759 mmHg 43%
    20:00 +21°C° 0 mm 2 m/s 759 mmHg 46%
    21:00 +19°C° 0 mm 2 m/s 760 mmHg 50%
    22:00 +18°C° 0 mm 2 m/s 760 mmHg 54%
    23:00 +17°C° 0 mm 2 m/s 760 mmHg 57%

    Mâine, 23 August, Vineri

    Timp Temperatura Precipitaţii Vânt Presiune Umiditate
    00:00 +17°C° 0 mm 2 m/s 759 mmHg 60%
    01:00 +16°C° 0 mm 2 m/s 759 mmHg 63%
    02:00 +16°C° 0 mm 2 m/s 759 mmHg 65%
    03:00 +15°C° 0 mm 2 m/s 759 mmHg 68%
    04:00 +16°C° 0 mm 2 m/s 759 mmHg 68%
    05:00 +16°C° 0 mm 2 m/s 759 mmHg 69%
    06:00 +16°C° 0 mm 2 m/s 758 mmHg 70%
    07:00 +18°C° 0 mm 2 m/s 759 mmHg 64%
    08:00 +21°C° 0 mm 3 m/s 759 mmHg 57%
    09:00 +24°C° 0 mm 3 m/s 759 mmHg 51%
    10:00 +26°C° 0 mm 3 m/s 759 mmHg 45%
    11:00 +28°C° 0 mm 3 m/s 758 mmHg 39%
    12:00 +30°C° 0 mm 3 m/s 758 mmHg 33%
    13:00 +30°C° 0 mm 3 m/s 757 mmHg 31%
    14:00 +31°C° 0 mm 3 m/s 757 mmHg 29%
    15:00 +31°C° 0 mm 3 m/s 757 mmHg 27%
    16:00 +30°C° 0 mm 3 m/s 756 mmHg 31%
    17:00 +28°C° 0 mm 3 m/s 756 mmHg 36%
    18:00 +27°C° 0 mm 3 m/s 756 mmHg 41%
    19:00 +25°C° 0 mm 3 m/s 756 mmHg 46%
    20:00 +22°C° 0 mm 3 m/s 756 mmHg 51%
    21:00 +20°C° 0 mm 3 m/s 756 mmHg 56%
    22:00 +20°C° 0 mm 3 m/s 756 mmHg 60%
    23:00 +19°C° 0 mm 2 m/s 756 mmHg 65%

    Poimâine, 24 August, Sâmbătă

    Timp Temperatura Precipitaţii Vânt Presiune Umiditate
    00:00 +18°C° 0 mm 2 m/s 756 mmHg 70%
    01:00 +18°C° 0 mm 2 m/s 755 mmHg 75%
    02:00 +17°C° 0 mm 2 m/s 755 mmHg 79%
    03:00 +17°C° 0 mm 2 m/s 755 mmHg 83%
    04:00 +17°C° 0 mm 2 m/s 755 mmHg 83%
    05:00 +17°C° 0 mm 2 m/s 755 mmHg 83%
    06:00 +17°C° 0 mm 2 m/s 755 mmHg 83%
    07:00 +20°C° 0 mm 2 m/s 755 mmHg 71%
    08:00 +24°C° 0 mm 2 m/s 755 mmHg 60%
    09:00 +27°C° 0 mm 2 m/s 755 mmHg 48%
    10:00 +29°C° 0 mm 2 m/s 755 mmHg 42%
    11:00 +31°C° 0 mm 2 m/s 754 mmHg 35%
    12:00 +32°C° 0 mm 2 m/s 754 mmHg 29%
    13:00 +33°C° 0 mm 1 m/s 754 mmHg 27%
    14:00 +34°C° 0 mm 1 m/s 753 mmHg 25%
    15:00 +34°C° 0 mm 1 m/s 753 mmHg 23%
    16:00 +33°C° 0 mm 1 m/s 753 mmHg 27%
    17:00 +31°C° 0 mm 1 m/s 752 mmHg 30%
    18:00 +30°C° 0 mm 1 m/s 752 mmHg 34%
    19:00 +28°C° 0 mm 1 m/s 752 mmHg 37%
    20:00 +26°C° 0 mm 1 m/s 753 mmHg 39%
    21:00 +24°C° 0 mm 2 m/s 753 mmHg 42%
    22:00 +23°C° 0 mm 2 m/s 753 mmHg 44%
    23:00 +23°C° 0 mm 1 m/s 753 mmHg 46%

    25 August, Duminică

    Timp Temperatura Precipitaţii Vânt Presiune Umiditate
    00:00 +22°C° 0 mm 1 m/s 753 mmHg 48%
    01:00 +22°C° 0 mm 1 m/s 753 mmHg 48%
    02:00 +21°C° 0 mm 1 m/s 752 mmHg 49%
    03:00 +21°C° 0 mm 1 m/s 752 mmHg 49%
    04:00 +21°C° 0 mm 1 m/s 752 mmHg 51%
    05:00 +21°C° 0 mm 1 m/s 753 mmHg 52%
    06:00 +19°C° 0 mm 0 m/s 753 mmHg 54%
    07:00 +24°C° 0 mm 1 m/s 753 mmHg 47%
    08:00 +27°C° 0 mm 1 m/s 753 mmHg 41%
    09:00 +30°C° 0 mm 1 m/s 754 mmHg 34%
    10:00 +30°C° 0 mm 0 m/s 754 mmHg 30%
    11:00 +32°C° 0 mm 0 m/s 753 mmHg 26%
    12:00 +34°C° 0 mm 0 m/s 753 mmHg 23%
    13:00 +34°C° 0 mm 0 m/s 753 mmHg 22%
    14:00 +36°C° 0 mm 1 m/s 753 mmHg 21%
    15:00 +36°C° 0 mm 1 m/s 753 mmHg 20%
    16:00 +34°C° 0 mm 1 m/s 753 mmHg 25%
    17:00 +32°C° 0 mm 1 m/s 753 mmHg 30%
    18:00 +30°C° 0 mm 2 m/s 753 mmHg 34%
    19:00 +29°C° 0 mm 2 m/s 754 mmHg 38%
    20:00 +27°C° 0 mm 2 m/s 754 mmHg 41%
    21:00 +26°C° 0 mm 2 m/s 755 mmHg 45%
    22:00 +25°C° 0 mm 2 m/s 755 mmHg 46%
    23:00 +24°C° 0 mm 2 m/s 755 mmHg 48%

    26 August, Luni

    Timp Temperatura Precipitaţii Vânt Presiune Umiditate
    00:00 +24°C° 0 mm 2 m/s 755 mmHg 50%
    01:00 +23°C° 0 mm 2 m/s 755 mmHg 51%
    02:00 +23°C° 0 mm 2 m/s 754 mmHg 52%
    03:00 +21°C° 0 mm 2 m/s 754 mmHg 53%
    04:00 +21°C° 0 mm 2 m/s 755 mmHg 54%
    05:00 +21°C° 0 mm 2 m/s 755 mmHg 56%
    06:00 +21°C° 0 mm 2 m/s 755 mmHg 57%
    07:00 +24°C° 0 mm 2 m/s 755 mmHg 52%
    08:00 +27°C° 0 mm 2 m/s 755 mmHg 46%
    09:00 +29°C° 0 mm 3 m/s 755 mmHg 40%
    10:00 +31°C° 0 mm 3 m/s 755 mmHg 36%
    11:00 +34°C° 0 mm 3 m/s 755 mmHg 31%
    12:00 +36°C° 0 mm 3 m/s 755 mmHg 26%
    13:00 +36°C° 0 mm 3 m/s 755 mmHg 25%
    14:00 +36°C° 0 mm 4 m/s 754 mmHg 25%
    15:00 +37°C° 0 mm 4 m/s 754 mmHg 24%
    16:00 +35°C° 0 mm 4 m/s 754 mmHg 28%
    17:00 +34°C° 0 mm 3 m/s 753 mmHg 31%
    18:00 +31°C° 0 mm 3 m/s 753 mmHg 35%
    19:00 +29°C° 0 mm 3 m/s 754 mmHg 39%
    20:00 +28°C° 0 mm 3 m/s 754 mmHg 43%
    21:00 +26°C° 0 mm 3 m/s 754 mmHg 47%
    22:00 +25°C° 0 mm 3 m/s 754 mmHg 51%
    23:00 +24°C° 0 mm 3 m/s 754 mmHg 54%

    27 August, Marţi

    Timp Temperatura Precipitaţii Vânt Presiune Umiditate
    00:00 +24°C° 0 mm 2 m/s 754 mmHg 58%
    01:00 +23°C° 0 mm 2 m/s 753 mmHg 59%
    02:00 +23°C° 0 mm 2 m/s 753 mmHg 60%
    03:00 +21°C° 0 mm 2 m/s 753 mmHg 62%
    04:00 +21°C° 0 mm 2 m/s 753 mmHg 63%
    05:00 +21°C° 0 mm 2 m/s 753 mmHg 64%
    06:00 +21°C° 0 mm 2 m/s 753 mmHg 65%
    07:00 +25°C° 0 mm 2 m/s 753 mmHg 58%
    08:00 +27°C° 0 mm 3 m/s 753 mmHg 51%
    09:00 +30°C° 0 mm 3 m/s 753 mmHg 44%
    10:00 +31°C° 0 mm 3 m/s 752 mmHg 39%
    11:00 +34°C° 0 mm 3 m/s 752 mmHg 35%
    12:00 +35°C° 0 mm 2 m/s 752 mmHg 30%
    13:00 +35°C° 0 mm 2 m/s 751 mmHg 29%
    14:00 +36°C° 0 mm 2 m/s 751 mmHg 27%
    15:00 +36°C° 0 mm 2 m/s 750 mmHg 25%
    16:00 +34°C° 0 mm 1 m/s 750 mmHg 29%
    17:00 +32°C° 0 mm 1 m/s 750 mmHg 32%
    18:00 +31°C° 0 mm 1 m/s 750 mmHg 36%
    19:00 +29°C° 0 mm 2 m/s 751 mmHg 43%
    20:00 +27°C° 0 mm 3 m/s 751 mmHg 51%
    21:00 +25°C° 0 mm 4 m/s 751 mmHg 59%
    22:00 +23°C° 0 mm 4 m/s 751 mmHg 63%
    23:00 +22°C° 0 mm 4 m/s 751 mmHg 67%
    Arată mai mult